Year,Month,Day,Hour,Minute,Value (Times are PST for temperature in C)
2014,08,11,00,00,18.00
2014,08,11,00,01,18.00
2014,08,11,00,02,18.10
2014,08,11,00,03,18.00
2014,08,11,00,04,18.00
2014,08,11,00,05,18.00
2014,08,11,00,06,18.00
2014,08,11,00,07,18.00
2014,08,11,00,08,18.00
2014,08,11,00,09,18.00
2014,08,11,00,10,18.00
2014,08,11,00,11,18.10
2014,08,11,00,12,18.10
2014,08,11,00,13,18.10
2014,08,11,00,14,18.10
2014,08,11,00,15,18.10
2014,08,11,00,16,18.10
2014,08,11,00,17,18.10
2014,08,11,00,18,18.10
2014,08,11,00,19,18.10
2014,08,11,00,20,18.10
2014,08,11,00,21,18.10
2014,08,11,00,22,18.00
2014,08,11,00,23,18.00
2014,08,11,00,24,18.00
2014,08,11,00,25,18.00
2014,08,11,00,26,18.00
2014,08,11,00,27,17.90
2014,08,11,00,28,17.90
2014,08,11,00,29,17.90
2014,08,11,00,30,17.80
2014,08,11,00,31,17.80
2014,08,11,00,32,17.80
2014,08,11,00,33,17.80
2014,08,11,00,34,17.80
2014,08,11,00,35,17.80
2014,08,11,00,36,17.80
2014,08,11,00,37,17.80
2014,08,11,00,38,17.80
2014,08,11,00,39,17.80
2014,08,11,00,40,17.80
2014,08,11,00,41,17.80
2014,08,11,00,42,17.80
2014,08,11,00,43,17.70
2014,08,11,00,44,17.70
2014,08,11,00,45,17.70
2014,08,11,00,46,17.70
2014,08,11,00,47,17.70
2014,08,11,00,48,17.60
2014,08,11,00,49,17.60
2014,08,11,00,50,17.60
2014,08,11,00,51,17.60
2014,08,11,00,52,17.60
2014,08,11,00,53,17.50
2014,08,11,00,54,17.40
2014,08,11,00,55,17.40
2014,08,11,00,56,17.40
2014,08,11,00,57,17.30
2014,08,11,00,58,17.30
2014,08,11,00,59,17.30
2014,08,11,01,00,17.20
2014,08,11,01,01,17.20
2014,08,11,01,02,17.10
2014,08,11,01,03,17.10
2014,08,11,01,04,17.10
2014,08,11,01,05,17.10
2014,08,11,01,06,17.00
2014,08,11,01,07,17.00
2014,08,11,01,08,17.00
2014,08,11,01,09,16.90
2014,08,11,01,10,16.90
2014,08,11,01,11,16.90
2014,08,11,01,12,16.90
2014,08,11,01,13,16.90
2014,08,11,01,14,16.90
2014,08,11,01,15,16.90
2014,08,11,01,16,16.80
2014,08,11,01,17,16.80
2014,08,11,01,18,16.80
2014,08,11,01,19,16.80
2014,08,11,01,20,16.80
2014,08,11,01,21,16.80
2014,08,11,01,22,16.80
2014,08,11,01,23,16.80
2014,08,11,01,24,16.80
2014,08,11,01,25,16.80
2014,08,11,01,26,16.80
2014,08,11,01,27,16.80
2014,08,11,01,28,16.80
2014,08,11,01,29,16.80
2014,08,11,01,30,16.80
2014,08,11,01,31,16.70
2014,08,11,01,32,16.70
2014,08,11,01,33,16.70
2014,08,11,01,34,16.70
2014,08,11,01,35,16.70
2014,08,11,01,36,16.70
2014,08,11,01,37,16.70
2014,08,11,01,38,16.70
2014,08,11,01,39,16.70
2014,08,11,01,40,16.70
2014,08,11,01,41,16.70
2014,08,11,01,42,16.70
2014,08,11,01,43,16.70
2014,08,11,01,44,16.70
2014,08,11,01,45,16.70
2014,08,11,01,46,16.70
2014,08,11,01,47,16.70
2014,08,11,01,48,16.70
2014,08,11,01,49,16.70
2014,08,11,01,50,16.70
2014,08,11,01,51,16.70
2014,08,11,01,52,16.70
2014,08,11,01,53,16.70
2014,08,11,01,54,16.60
2014,08,11,01,55,16.60
2014,08,11,01,56,16.60
2014,08,11,01,57,16.60
2014,08,11,01,58,16.60
2014,08,11,01,59,16.50
2014,08,11,02,00,16.50
2014,08,11,02,01,16.50
2014,08,11,02,02,16.50
2014,08,11,02,03,16.50
2014,08,11,02,04,16.50
2014,08,11,02,05,16.50
2014,08,11,02,06,16.50
2014,08,11,02,07,16.50
2014,08,11,02,08,16.50
2014,08,11,02,09,16.50
2014,08,11,02,10,16.50
2014,08,11,02,11,16.50
2014,08,11,02,12,16.50
2014,08,11,02,13,16.50
2014,08,11,02,14,16.50
2014,08,11,02,15,16.50
2014,08,11,02,16,16.50
2014,08,11,02,17,16.50
2014,08,11,02,18,16.50
2014,08,11,02,19,16.50
2014,08,11,02,20,16.50
2014,08,11,02,21,16.40
2014,08,11,02,22,16.40
2014,08,11,02,23,16.40
2014,08,11,02,24,16.40
2014,08,11,02,25,16.40
2014,08,11,02,26,16.40
2014,08,11,02,27,16.40
2014,08,11,02,28,16.40
2014,08,11,02,29,16.40
2014,08,11,02,30,16.40
2014,08,11,02,31,16.40
2014,08,11,02,32,16.40
2014,08,11,02,33,16.40
2014,08,11,02,34,16.30
2014,08,11,02,35,16.30
2014,08,11,02,36,16.30
2014,08,11,02,37,16.30
2014,08,11,02,38,16.30
2014,08,11,02,39,16.30
2014,08,11,02,40,16.30
2014,08,11,02,41,16.30
2014,08,11,02,42,16.20
2014,08,11,02,43,16.20
2014,08,11,02,44,16.20
2014,08,11,02,45,16.20
2014,08,11,02,46,16.20
2014,08,11,02,47,16.20
2014,08,11,02,48,16.20
2014,08,11,02,49,16.20
2014,08,11,02,50,16.20
2014,08,11,02,51,16.20
2014,08,11,02,52,16.20
2014,08,11,02,53,16.20
2014,08,11,02,54,16.20
2014,08,11,02,55,16.20
2014,08,11,02,56,16.20
2014,08,11,02,57,16.20
2014,08,11,02,58,16.20
2014,08,11,02,59,16.20
2014,08,11,03,00,16.20
2014,08,11,03,01,16.20
2014,08,11,03,02,16.20
2014,08,11,03,03,16.20
2014,08,11,03,04,16.20
2014,08,11,03,05,16.20
2014,08,11,03,06,16.20
2014,08,11,03,07,16.30
2014,08,11,03,08,16.30
2014,08,11,03,09,16.30
2014,08,11,03,10,16.30
2014,08,11,03,11,16.30
2014,08,11,03,12,16.30
2014,08,11,03,13,16.30
2014,08,11,03,14,16.30
2014,08,11,03,15,16.30
2014,08,11,03,16,16.30
2014,08,11,03,17,16.30
2014,08,11,03,18,16.20
2014,08,11,03,19,16.20
2014,08,11,03,20,16.20
2014,08,11,03,21,16.20
2014,08,11,03,22,16.20
2014,08,11,03,23,16.20
2014,08,11,03,24,16.20
2014,08,11,03,25,16.10
2014,08,11,03,26,16.20
2014,08,11,03,27,16.10
2014,08,11,03,28,16.10
2014,08,11,03,29,16.10
2014,08,11,03,30,16.10
2014,08,11,03,31,16.10
2014,08,11,03,32,16.10
2014,08,11,03,33,16.10
2014,08,11,03,34,16.10
2014,08,11,03,35,16.10
2014,08,11,03,36,16.10
2014,08,11,03,37,16.10
2014,08,11,03,38,16.10
2014,08,11,03,39,16.10
2014,08,11,03,40,16.10
2014,08,11,03,41,16.10
2014,08,11,03,42,16.10
2014,08,11,03,43,16.10
2014,08,11,03,44,16.10
2014,08,11,03,45,16.10
2014,08,11,03,46,16.20
2014,08,11,03,47,16.20
2014,08,11,03,48,16.20
2014,08,11,03,49,16.20
2014,08,11,03,50,16.20
2014,08,11,03,51,16.20
2014,08,11,03,52,16.20
2014,08,11,03,53,16.20
2014,08,11,03,54,16.20
2014,08,11,03,55,16.20
2014,08,11,03,56,16.20
2014,08,11,03,57,16.20
2014,08,11,03,58,16.20
2014,08,11,03,59,16.20
2014,08,11,04,00,16.20
2014,08,11,04,01,16.20
2014,08,11,04,02,16.10
2014,08,11,04,03,16.10
2014,08,11,04,04,16.10
2014,08,11,04,05,16.10
2014,08,11,04,06,16.10
2014,08,11,04,07,16.20
2014,08,11,04,08,16.20
2014,08,11,04,09,16.20
2014,08,11,04,10,16.20
2014,08,11,04,11,16.20
2014,08,11,04,12,16.20
2014,08,11,04,13,16.20
2014,08,11,04,14,16.20
2014,08,11,04,15,16.10
2014,08,11,04,16,16.10
2014,08,11,04,17,16.10
2014,08,11,04,18,16.10
2014,08,11,04,19,16.10
2014,08,11,04,20,16.00
2014,08,11,04,21,16.00
2014,08,11,04,22,15.90
2014,08,11,04,23,15.90
2014,08,11,04,24,15.90
2014,08,11,04,25,15.80
2014,08,11,04,26,15.70
2014,08,11,04,27,15.70
2014,08,11,04,28,15.60
2014,08,11,04,29,15.50
2014,08,11,04,30,15.40
2014,08,11,04,31,15.40
2014,08,11,04,32,15.30
2014,08,11,04,33,15.30
2014,08,11,04,34,15.20
2014,08,11,04,35,15.10
2014,08,11,04,36,15.10
2014,08,11,04,37,15.00
2014,08,11,04,38,15.00
2014,08,11,04,39,15.00
2014,08,11,04,40,15.00
2014,08,11,04,41,15.00
2014,08,11,04,42,15.00
2014,08,11,04,43,15.00
2014,08,11,04,44,15.00
2014,08,11,04,45,14.90
2014,08,11,04,46,14.90
2014,08,11,04,47,14.80
2014,08,11,04,48,14.80
2014,08,11,04,49,14.80
2014,08,11,04,50,14.80
2014,08,11,04,51,14.80
2014,08,11,04,52,14.70
2014,08,11,04,53,14.70
2014,08,11,04,54,14.70
2014,08,11,04,55,14.70
2014,08,11,04,56,14.70
2014,08,11,04,57,14.70
2014,08,11,04,58,14.70
2014,08,11,04,59,14.70
2014,08,11,05,00,14.70
2014,08,11,05,01,14.70
2014,08,11,05,02,14.70
2014,08,11,05,03,14.70
2014,08,11,05,04,14.70
2014,08,11,05,05,14.70
2014,08,11,05,06,14.70
2014,08,11,05,07,14.70
2014,08,11,05,08,14.70
2014,08,11,05,09,14.80
2014,08,11,05,10,14.80
2014,08,11,05,11,14.80
2014,08,11,05,12,14.80
2014,08,11,05,13,14.80
2014,08,11,05,14,14.90
2014,08,11,05,15,14.90
2014,08,11,05,16,15.00
2014,08,11,05,17,15.00
2014,08,11,05,18,15.00
2014,08,11,05,19,15.00
2014,08,11,05,20,15.00
2014,08,11,05,21,15.00
2014,08,11,05,22,15.00
2014,08,11,05,23,15.20
2014,08,11,05,24,15.30
2014,08,11,05,25,15.40
2014,08,11,05,26,15.50
2014,08,11,05,27,15.70
2014,08,11,05,28,15.80
2014,08,11,05,29,15.90
2014,08,11,05,30,16.00
2014,08,11,05,31,16.10
2014,08,11,05,32,16.10
2014,08,11,05,33,16.20
2014,08,11,05,34,16.20
2014,08,11,05,35,16.30
2014,08,11,05,36,16.30
2014,08,11,05,37,16.40
2014,08,11,05,38,16.40
2014,08,11,05,39,16.40
2014,08,11,05,40,16.50
2014,08,11,05,41,16.50
2014,08,11,05,42,16.50
2014,08,11,05,43,16.50
2014,08,11,05,44,16.50
2014,08,11,05,45,16.50
2014,08,11,05,46,16.50
2014,08,11,05,47,16.60
2014,08,11,05,48,16.60
2014,08,11,05,49,16.60
2014,08,11,05,50,16.60
2014,08,11,05,51,16.60
2014,08,11,05,52,16.60
2014,08,11,05,53,16.50
2014,08,11,05,54,16.50
2014,08,11,05,55,16.50
2014,08,11,05,56,16.50
2014,08,11,05,57,16.50
2014,08,11,05,58,16.40
2014,08,11,05,59,16.40
2014,08,11,06,00,16.40
2014,08,11,06,01,16.40
2014,08,11,06,02,16.40
2014,08,11,06,03,16.30
2014,08,11,06,04,16.30
2014,08,11,06,05,16.30
2014,08,11,06,06,16.20
2014,08,11,06,07,16.20
2014,08,11,06,08,16.10
2014,08,11,06,09,16.10
2014,08,11,06,10,16.10
2014,08,11,06,11,16.10
2014,08,11,06,12,16.10
2014,08,11,06,13,16.10
2014,08,11,06,14,16.10
2014,08,11,06,15,16.10
2014,08,11,06,16,16.10
2014,08,11,06,17,16.10
2014,08,11,06,18,16.10
2014,08,11,06,19,16.10
2014,08,11,06,20,16.10
2014,08,11,06,21,16.10
2014,08,11,06,22,16.10
2014,08,11,06,23,16.10
2014,08,11,06,24,16.10
2014,08,11,06,25,16.10
2014,08,11,06,26,16.10
2014,08,11,06,27,16.10
2014,08,11,06,28,16.10
2014,08,11,06,29,16.10
2014,08,11,06,30,16.20
2014,08,11,06,31,16.20
2014,08,11,06,32,16.20
2014,08,11,06,33,16.20
2014,08,11,06,34,16.20
2014,08,11,06,35,16.20
2014,08,11,06,36,16.20
2014,08,11,06,37,16.10
2014,08,11,06,38,16.10
2014,08,11,06,39,16.10
2014,08,11,06,40,16.10
2014,08,11,06,41,16.10
2014,08,11,06,42,16.10
2014,08,11,06,43,16.10
2014,08,11,06,44,16.10
2014,08,11,06,45,16.10
2014,08,11,06,46,16.10
2014,08,11,06,47,16.10
2014,08,11,06,48,16.10
2014,08,11,06,49,16.10
2014,08,11,06,50,16.10
2014,08,11,06,51,16.10
2014,08,11,06,52,16.10
2014,08,11,06,53,16.10
2014,08,11,06,54,16.10
2014,08,11,06,55,16.10
2014,08,11,06,56,16.10
2014,08,11,06,57,16.10
2014,08,11,06,58,16.10
2014,08,11,06,59,16.20
2014,08,11,07,00,16.20
2014,08,11,07,01,16.20
2014,08,11,07,02,16.30
2014,08,11,07,03,16.30
2014,08,11,07,04,16.40
2014,08,11,07,05,16.50
2014,08,11,07,06,16.60
2014,08,11,07,07,16.60
2014,08,11,07,08,16.70
2014,08,11,07,09,16.70
2014,08,11,07,10,16.80
2014,08,11,07,11,16.80
2014,08,11,07,12,16.90
2014,08,11,07,13,16.90
2014,08,11,07,14,17.00
2014,08,11,07,15,17.00
2014,08,11,07,16,17.10
2014,08,11,07,17,17.10
2014,08,11,07,18,17.20
2014,08,11,07,19,17.20
2014,08,11,07,20,17.20
2014,08,11,07,21,17.30
2014,08,11,07,22,17.30
2014,08,11,07,23,17.40
2014,08,11,07,24,17.40
2014,08,11,07,25,17.50
2014,08,11,07,26,17.60
2014,08,11,07,27,17.70
2014,08,11,07,28,17.70
2014,08,11,07,29,17.90
2014,08,11,07,30,18.00
2014,08,11,07,31,18.10
2014,08,11,07,32,18.20
2014,08,11,07,33,18.20
2014,08,11,07,34,18.20
2014,08,11,07,35,18.30
2014,08,11,07,36,18.30
2014,08,11,07,37,18.30
2014,08,11,07,38,18.40
2014,08,11,07,39,18.40
2014,08,11,07,40,18.50
2014,08,11,07,41,18.50
2014,08,11,07,42,18.60
2014,08,11,07,43,18.60
2014,08,11,07,44,18.70
2014,08,11,07,45,18.70
2014,08,11,07,46,18.80
2014,08,11,07,47,18.80
2014,08,11,07,48,18.80
2014,08,11,07,49,18.90
2014,08,11,07,50,18.90
2014,08,11,07,51,18.90
2014,08,11,07,52,19.00
2014,08,11,07,53,19.00
2014,08,11,07,54,19.10
2014,08,11,07,55,19.10
2014,08,11,07,56,19.20
2014,08,11,07,57,19.30
2014,08,11,07,58,19.40
2014,08,11,07,59,19.40
2014,08,11,08,00,19.50
2014,08,11,08,01,19.50
2014,08,11,08,02,19.60
2014,08,11,08,03,19.70
2014,08,11,08,04,19.70
2014,08,11,08,05,19.80
2014,08,11,08,06,19.80
2014,08,11,08,07,19.90
2014,08,11,08,08,20.00
2014,08,11,08,09,20.10
2014,08,11,08,10,20.20
2014,08,11,08,11,20.20
2014,08,11,08,12,20.30
2014,08,11,08,13,20.30
2014,08,11,08,14,20.40
2014,08,11,08,15,20.50
2014,08,11,08,16,20.50
2014,08,11,08,17,20.60
2014,08,11,08,18,20.70
2014,08,11,08,19,20.70
2014,08,11,08,20,20.70
2014,08,11,08,21,20.80
2014,08,11,08,22,20.80
2014,08,11,08,23,20.80
2014,08,11,08,24,20.90
2014,08,11,08,25,21.00
2014,08,11,08,26,21.00
2014,08,11,08,27,21.10
2014,08,11,08,28,21.10
2014,08,11,08,29,21.20
2014,08,11,08,30,21.20
2014,08,11,08,31,21.30
2014,08,11,08,32,21.30
2014,08,11,08,33,21.40
2014,08,11,08,34,21.50
2014,08,11,08,35,21.50
2014,08,11,08,36,21.60
2014,08,11,08,37,21.60
2014,08,11,08,38,21.70
2014,08,11,08,39,21.80
2014,08,11,08,40,21.80
2014,08,11,08,41,21.90
2014,08,11,08,42,21.90
2014,08,11,08,43,22.00
2014,08,11,08,44,22.10
2014,08,11,08,45,22.20
2014,08,11,08,46,22.30
2014,08,11,08,47,22.40
2014,08,11,08,48,22.50
2014,08,11,08,49,22.50
2014,08,11,08,50,22.60
2014,08,11,08,51,22.70
2014,08,11,08,52,22.70
2014,08,11,08,53,22.70
2014,08,11,08,54,22.80
2014,08,11,08,55,22.80
2014,08,11,08,56,22.80
2014,08,11,08,57,22.80
2014,08,11,08,58,22.90
2014,08,11,08,59,22.90
2014,08,11,09,00,23.00
2014,08,11,09,01,23.10
2014,08,11,09,02,23.10
2014,08,11,09,03,23.20
2014,08,11,09,04,23.20
2014,08,11,09,05,23.30
2014,08,11,09,06,23.50
2014,08,11,09,07,23.50
2014,08,11,09,08,23.60
2014,08,11,09,09,23.70
2014,08,11,09,10,23.80
2014,08,11,09,11,23.80
2014,08,11,09,12,23.90
2014,08,11,09,13,23.90
2014,08,11,09,14,23.90
2014,08,11,09,15,24.00
2014,08,11,09,16,24.10
2014,08,11,09,17,24.20
2014,08,11,09,18,24.30
2014,08,11,09,19,24.40
2014,08,11,09,20,24.40
2014,08,11,09,21,24.50
2014,08,11,09,22,24.50
2014,08,11,09,23,24.60
2014,08,11,09,24,24.60
2014,08,11,09,25,24.60
2014,08,11,09,26,24.60
2014,08,11,09,27,24.60
2014,08,11,09,28,24.60
2014,08,11,09,29,24.60
2014,08,11,09,30,24.60
2014,08,11,09,31,24.50
2014,08,11,09,32,24.50
2014,08,11,09,33,24.50
2014,08,11,09,34,24.40
2014,08,11,09,35,24.40
2014,08,11,09,36,24.40
2014,08,11,09,37,24.40
2014,08,11,09,38,24.50
2014,08,11,09,39,24.50
2014,08,11,09,40,24.60
2014,08,11,09,41,24.60
2014,08,11,09,42,24.60
2014,08,11,09,43,24.60
2014,08,11,09,44,24.60
2014,08,11,09,45,24.70
2014,08,11,09,46,24.70
2014,08,11,09,47,24.70
2014,08,11,09,48,24.70
2014,08,11,09,49,24.70
2014,08,11,09,50,24.70
2014,08,11,09,51,24.70
2014,08,11,09,52,24.70
2014,08,11,09,53,24.70
2014,08,11,09,54,24.70
2014,08,11,09,55,24.70
2014,08,11,09,56,24.70
2014,08,11,09,57,24.70
2014,08,11,09,58,24.80
2014,08,11,09,59,24.80
2014,08,11,10,00,24.80
2014,08,11,10,01,24.80
2014,08,11,10,02,24.80
2014,08,11,10,03,24.90
2014,08,11,10,04,24.90
2014,08,11,10,05,25.00
2014,08,11,10,06,25.10
2014,08,11,10,07,25.20
2014,08,11,10,08,25.20
2014,08,11,10,09,25.20
2014,08,11,10,10,25.20
2014,08,11,10,11,25.20
2014,08,11,10,12,25.20
2014,08,11,10,13,25.20
2014,08,11,10,14,25.20
2014,08,11,10,15,25.20
2014,08,11,10,16,25.30
2014,08,11,10,17,25.30
2014,08,11,10,18,25.30
2014,08,11,10,19,25.30
2014,08,11,10,20,25.30
2014,08,11,10,21,25.30
2014,08,11,10,22,25.30
2014,08,11,10,23,25.30
2014,08,11,10,24,25.30
2014,08,11,10,25,25.30
2014,08,11,10,26,25.30
2014,08,11,10,27,25.30
2014,08,11,10,28,25.30
2014,08,11,10,29,25.20
2014,08,11,10,30,25.20
2014,08,11,10,31,25.30
2014,08,11,10,32,25.30
2014,08,11,10,33,25.40
2014,08,11,10,34,25.30
2014,08,11,10,35,25.30
2014,08,11,10,36,25.30
2014,08,11,10,37,25.30
2014,08,11,10,38,25.40
2014,08,11,10,39,25.40
2014,08,11,10,40,25.50
2014,08,11,10,41,25.50
2014,08,11,10,42,25.60
2014,08,11,10,43,25.60
2014,08,11,10,44,25.60
2014,08,11,10,45,25.60
2014,08,11,10,46,25.60
2014,08,11,10,47,25.70
2014,08,11,10,48,25.80
2014,08,11,10,49,25.80
2014,08,11,10,50,25.90
2014,08,11,10,51,25.90
2014,08,11,10,52,25.90
2014,08,11,10,53,25.90
2014,08,11,10,54,26.00
2014,08,11,10,55,26.10
2014,08,11,10,56,26.20
2014,08,11,10,57,26.30
2014,08,11,10,58,26.30
2014,08,11,10,59,26.40
2014,08,11,11,00,26.50
2014,08,11,11,01,26.50
2014,08,11,11,02,26.50
2014,08,11,11,03,26.50
2014,08,11,11,04,26.60
2014,08,11,11,05,26.60
2014,08,11,11,06,26.60
2014,08,11,11,07,26.60
2014,08,11,11,08,26.60
2014,08,11,11,09,26.60
2014,08,11,11,10,26.60
2014,08,11,11,11,26.60
2014,08,11,11,12,26.60
2014,08,11,11,13,26.60
2014,08,11,11,14,26.70
2014,08,11,11,15,26.70
2014,08,11,11,16,26.70
2014,08,11,11,17,26.80
2014,08,11,11,18,26.80
2014,08,11,11,19,26.80
2014,08,11,11,20,26.80
2014,08,11,11,21,26.80
2014,08,11,11,22,26.90
2014,08,11,11,23,26.90
2014,08,11,11,24,26.90
2014,08,11,11,25,26.90
2014,08,11,11,26,26.90
2014,08,11,11,27,26.90
2014,08,11,11,28,27.00
2014,08,11,11,29,27.00
2014,08,11,11,30,27.00
2014,08,11,11,31,27.10
2014,08,11,11,32,27.10
2014,08,11,11,33,27.20
2014,08,11,11,34,27.20
2014,08,11,11,35,27.20
2014,08,11,11,36,27.10
2014,08,11,11,37,27.00
2014,08,11,11,38,27.00
2014,08,11,11,39,26.90
2014,08,11,11,40,26.90
2014,08,11,11,41,26.90
2014,08,11,11,42,26.90
2014,08,11,11,43,27.00
2014,08,11,11,44,27.00
2014,08,11,11,45,27.10
2014,08,11,11,46,27.20
2014,08,11,11,47,27.20
2014,08,11,11,48,27.30
2014,08,11,11,49,27.40
2014,08,11,11,50,27.40
2014,08,11,11,51,27.40
2014,08,11,11,52,27.40
2014,08,11,11,53,27.30
2014,08,11,11,54,27.30
2014,08,11,11,55,27.20
2014,08,11,11,56,27.20
2014,08,11,11,57,27.10
2014,08,11,11,58,27.10
2014,08,11,11,59,27.20
2014,08,11,12,00,27.20
2014,08,11,12,01,27.20
2014,08,11,12,02,27.20
2014,08,11,12,03,27.20
2014,08,11,12,04,27.20
2014,08,11,12,05,27.30
2014,08,11,12,06,27.30
2014,08,11,12,07,27.30
2014,08,11,12,08,27.40
2014,08,11,12,09,27.50
2014,08,11,12,10,27.50
2014,08,11,12,11,27.60
2014,08,11,12,12,27.60
2014,08,11,12,13,27.60
2014,08,11,12,14,27.70
2014,08,11,12,15,27.70
2014,08,11,12,16,27.80
2014,08,11,12,17,27.80
2014,08,11,12,18,27.90
2014,08,11,12,19,28.00
2014,08,11,12,20,28.10
2014,08,11,12,21,28.10
2014,08,11,12,22,28.20
2014,08,11,12,23,28.30
2014,08,11,12,24,28.40
2014,08,11,12,25,28.50
2014,08,11,12,26,28.70
2014,08,11,12,27,28.80
2014,08,11,12,28,28.80
2014,08,11,12,29,28.80
2014,08,11,12,30,28.80
2014,08,11,12,31,28.60
2014,08,11,12,32,28.50
2014,08,11,12,33,28.40
2014,08,11,12,34,28.20
2014,08,11,12,35,28.10
2014,08,11,12,36,28.00
2014,08,11,12,37,27.90
2014,08,11,12,38,27.80
2014,08,11,12,39,27.70
2014,08,11,12,40,27.60
2014,08,11,12,41,27.50
2014,08,11,12,42,27.50
2014,08,11,12,43,27.50
2014,08,11,12,44,27.60
2014,08,11,12,45,27.60
2014,08,11,12,46,27.70
2014,08,11,12,47,27.80
2014,08,11,12,48,27.90
2014,08,11,12,49,27.90
2014,08,11,12,50,27.90
2014,08,11,12,51,27.90
2014,08,11,12,52,27.90
2014,08,11,12,53,27.90
2014,08,11,12,54,27.90
2014,08,11,12,55,27.80
2014,08,11,12,56,27.70
2014,08,11,12,57,27.60
2014,08,11,12,58,27.60
2014,08,11,12,59,27.50
2014,08,11,13,00,27.50
2014,08,11,13,01,27.40
2014,08,11,13,02,27.40
2014,08,11,13,03,27.40
2014,08,11,13,04,27.40
2014,08,11,13,05,27.40
2014,08,11,13,06,27.40
2014,08,11,13,07,27.40
2014,08,11,13,08,27.40
2014,08,11,13,09,27.50
2014,08,11,13,10,27.50
2014,08,11,13,11,27.40
2014,08,11,13,12,27.40
2014,08,11,13,13,27.40
2014,08,11,13,14,27.50
2014,08,11,13,15,27.60
2014,08,11,13,16,27.60
2014,08,11,13,17,27.70
2014,08,11,13,18,27.70
2014,08,11,13,19,27.70
2014,08,11,13,20,27.70
2014,08,11,13,21,27.70
2014,08,11,13,22,27.70
2014,08,11,13,23,27.70
2014,08,11,13,24,27.70
2014,08,11,13,25,27.70
2014,08,11,13,26,27.60
2014,08,11,13,27,27.60
2014,08,11,13,28,27.50
2014,08,11,13,29,27.50
2014,08,11,13,30,27.40
2014,08,11,13,31,27.30
2014,08,11,13,32,27.20
2014,08,11,13,33,27.10
2014,08,11,13,34,27.00
2014,08,11,13,35,26.90
2014,08,11,13,36,26.90
2014,08,11,13,37,27.00
2014,08,11,13,38,27.00
2014,08,11,13,39,27.10
2014,08,11,13,40,27.10
2014,08,11,13,41,27.10
2014,08,11,13,42,27.10
2014,08,11,13,43,27.10
2014,08,11,13,44,27.10
2014,08,11,13,45,27.10
2014,08,11,13,46,27.00
2014,08,11,13,47,27.00
2014,08,11,13,48,27.00
2014,08,11,13,49,26.90
2014,08,11,13,50,26.90
2014,08,11,13,51,26.90
2014,08,11,13,52,26.90
2014,08,11,13,53,27.00
2014,08,11,13,54,27.00
2014,08,11,13,55,27.10
2014,08,11,13,56,27.20
2014,08,11,13,57,27.30
2014,08,11,13,58,27.40
2014,08,11,13,59,27.40
2014,08,11,14,00,27.50
2014,08,11,14,01,27.60
2014,08,11,14,02,27.60
2014,08,11,14,03,27.60
2014,08,11,14,04,27.60
2014,08,11,14,05,27.60
2014,08,11,14,06,27.60
2014,08,11,14,07,27.60
2014,08,11,14,08,27.60
2014,08,11,14,09,27.60
2014,08,11,14,10,27.70
2014,08,11,14,11,27.70
2014,08,11,14,12,27.70
2014,08,11,14,13,27.60
2014,08,11,14,14,27.60
2014,08,11,14,15,27.60
2014,08,11,14,16,27.60
2014,08,11,14,17,27.50
2014,08,11,14,18,27.50
2014,08,11,14,19,27.40
2014,08,11,14,20,27.40
2014,08,11,14,21,27.40
2014,08,11,14,22,27.40
2014,08,11,14,23,27.40
2014,08,11,14,24,27.40
2014,08,11,14,25,27.50
2014,08,11,14,26,27.50
2014,08,11,14,27,27.60
2014,08,11,14,28,27.70
2014,08,11,14,29,27.80
2014,08,11,14,30,27.80
2014,08,11,14,31,27.90
2014,08,11,14,32,27.90
2014,08,11,14,33,27.90
2014,08,11,14,34,27.80
2014,08,11,14,35,27.80
2014,08,11,14,36,27.70
2014,08,11,14,37,27.60
2014,08,11,14,38,27.50
2014,08,11,14,39,27.40
2014,08,11,14,40,27.30
2014,08,11,14,41,27.30
2014,08,11,14,42,27.20
2014,08,11,14,43,27.10
2014,08,11,14,44,27.10
2014,08,11,14,45,27.00
2014,08,11,14,46,27.00
2014,08,11,14,47,26.90
2014,08,11,14,48,26.80
2014,08,11,14,49,26.80
2014,08,11,14,50,26.70
2014,08,11,14,51,26.60
2014,08,11,14,52,26.60
2014,08,11,14,53,26.60
2014,08,11,14,54,26.60
2014,08,11,14,55,26.70
2014,08,11,14,56,26.70
2014,08,11,14,57,26.70
2014,08,11,14,58,26.80
2014,08,11,14,59,26.80
2014,08,11,15,00,26.90
2014,08,11,15,01,26.90
2014,08,11,15,02,27.00
2014,08,11,15,03,27.10
2014,08,11,15,04,27.20
2014,08,11,15,05,27.20
2014,08,11,15,06,27.30
2014,08,11,15,07,27.30
2014,08,11,15,08,27.20
2014,08,11,15,09,27.10
2014,08,11,15,10,27.10
2014,08,11,15,11,27.00
2014,08,11,15,12,27.00
2014,08,11,15,13,27.00
2014,08,11,15,14,26.90
2014,08,11,15,15,26.80
2014,08,11,15,16,26.80
2014,08,11,15,17,26.70
2014,08,11,15,18,26.70
2014,08,11,15,19,26.70
2014,08,11,15,20,26.70
2014,08,11,15,21,26.70
2014,08,11,15,22,26.80
2014,08,11,15,23,26.80
2014,08,11,15,24,26.70
2014,08,11,15,25,26.70
2014,08,11,15,26,26.70
2014,08,11,15,27,26.60
2014,08,11,15,28,26.60
2014,08,11,15,29,26.50
2014,08,11,15,30,26.40
2014,08,11,15,31,26.40
2014,08,11,15,32,26.30
2014,08,11,15,33,26.30
2014,08,11,15,34,26.30
2014,08,11,15,35,26.30
2014,08,11,15,36,26.20
2014,08,11,15,37,26.20
2014,08,11,15,38,26.30
2014,08,11,15,39,26.30
2014,08,11,15,40,26.40
2014,08,11,15,41,26.50
2014,08,11,15,42,26.60
2014,08,11,15,43,26.60
2014,08,11,15,44,26.70
2014,08,11,15,45,26.80
2014,08,11,15,46,26.90
2014,08,11,15,47,26.90
2014,08,11,15,48,26.90
2014,08,11,15,49,26.90
2014,08,11,15,50,26.90
2014,08,11,15,51,26.90
2014,08,11,15,52,26.90
2014,08,11,15,53,26.90
2014,08,11,15,54,26.80
2014,08,11,15,55,26.80
2014,08,11,15,56,26.80
2014,08,11,15,57,26.80
2014,08,11,15,58,26.80
2014,08,11,15,59,26.80
2014,08,11,16,00,26.90
2014,08,11,16,01,26.90
2014,08,11,16,02,26.90
2014,08,11,16,03,27.00
2014,08,11,16,04,27.00
2014,08,11,16,05,27.00
2014,08,11,16,06,27.10
2014,08,11,16,07,27.10
2014,08,11,16,08,27.10
2014,08,11,16,09,27.10
2014,08,11,16,10,27.20
2014,08,11,16,11,27.20
2014,08,11,16,12,27.20
2014,08,11,16,13,27.20
2014,08,11,16,14,27.20
2014,08,11,16,15,27.20
2014,08,11,16,16,27.10
2014,08,11,16,17,27.00
2014,08,11,16,18,26.90
2014,08,11,16,19,26.80
2014,08,11,16,20,26.60
2014,08,11,16,21,26.50
2014,08,11,16,22,26.40
2014,08,11,16,23,26.30
2014,08,11,16,24,26.20
2014,08,11,16,25,26.20
2014,08,11,16,26,26.10
2014,08,11,16,27,26.00
2014,08,11,16,28,25.90
2014,08,11,16,29,25.90
2014,08,11,16,30,25.80
2014,08,11,16,31,25.80
2014,08,11,16,32,25.60
2014,08,11,16,33,25.50
2014,08,11,16,34,25.40
2014,08,11,16,35,25.30
2014,08,11,16,36,25.30
2014,08,11,16,37,25.20
2014,08,11,16,38,25.20
2014,08,11,16,39,25.20
2014,08,11,16,40,25.20
2014,08,11,16,41,25.20
2014,08,11,16,42,25.30
2014,08,11,16,43,25.40
2014,08,11,16,44,25.40
2014,08,11,16,45,25.50
2014,08,11,16,46,25.60
2014,08,11,16,47,25.70
2014,08,11,16,48,25.80
2014,08,11,16,49,25.90
2014,08,11,16,50,25.90
2014,08,11,16,51,25.90
2014,08,11,16,52,25.90
2014,08,11,16,53,25.90
2014,08,11,16,54,25.90
2014,08,11,16,55,25.90
2014,08,11,16,56,26.00
2014,08,11,16,57,26.00
2014,08,11,16,58,26.10
2014,08,11,16,59,26.10
2014,08,11,17,00,26.20
2014,08,11,17,01,26.10
2014,08,11,17,02,26.10
2014,08,11,17,03,26.00
2014,08,11,17,04,25.90
2014,08,11,17,05,25.90
2014,08,11,17,06,25.90
2014,08,11,17,07,25.80
2014,08,11,17,08,25.80
2014,08,11,17,09,25.80
2014,08,11,17,10,25.80
2014,08,11,17,11,25.80
2014,08,11,17,12,25.90
2014,08,11,17,13,25.90
2014,08,11,17,14,25.90
2014,08,11,17,15,25.90
2014,08,11,17,16,26.00
2014,08,11,17,17,26.10
2014,08,11,17,18,26.20
2014,08,11,17,19,26.20